Find Starlink 31313

NORAD ID: 59088 Int'l Des: 2024-041 Owner: SPXS Country: US Constellation: starlink operational
LEOCIRCULAR

实时位置

正在加载3D地球...

关于 Starlink 31313

正在加载描述...

即将过境

Passes for default location (London). Set your location on the main map for personalized predictions.

高度历史

Loading altitude history...

两行轨道根数

1 59088U 24041Q 26121.13384157 .00001918 00000-0 79173-4 0 9995
2 59088 43.0005 14.4022 0000654 285.2213 74.8566 15.27586868122293
Epoch: May 1, 2026 • Age: 11 hours

当前状态

高度 486.2 km
速度 7.63 km/s
星下点 41.23°N, 43.16°E
发射日期 Feb 29, 2024
运行时间 2.1 years
类型 internet

技术详情

分类 Payload
质量 730.00 kg
干质量 700.00 kg
总质量 730.00 kg
长度 0.30 m
直径 4.10 m
跨度 29.00 m
形状 Box + pan
制造商 SPXS
平台类型 Starlink V2M
阶段状态 In Orbit
所有者/国家 SPXS/US

Most Searched